User: anonymous   Login
Location: Valdosta
(30.8330°N, 83.2790°W)
Time: 00:46:31
(UTC-04:00)
Language:

Oscar 19 - Orbit

View from above orbital plane
View from above orbital plane
View from above satellite
View from above satellite

Ground track
Ground track

The orbit data is extracted from the following two-line orbital elements,

1 20442U 90005G   15242.78833060  .00000047  00000-0  33106-4 0  9993
2 20442 098.5137 177.2303 0010667 290.6229 069.3811 14.32756289337626
Epoch (UTC): 30 August 2015 18:55:11
Eccentricity: 0.0010667
inclination: 98.5137°
perigee height: 775 km
apogee height: 790 km
right ascension of ascending node: 177.2303°
argument of perigee: 290.6229°
revolutions per day: 14.32756289
mean anomaly at epoch: 69.3811°
orbit number at epoch: 33762

The dashed part of the orbit path shows where the satellite is in the earth's shadow,  

DLR